User: anonymous
Location: Austin, TX
(30.3000°N, 97.7500°W)
Time: 15:01:06
(UTC-05:00)
Language:

Cosmos 2082 Rocket - Orbit

View from above orbital plane
View from above orbital plane
View from above satellite
View from above satellite

Ground track
Ground track

The orbit data is extracted from the following two-line orbital elements,

1 20625U 90046B   14261.79607053  .00000130  00000-0  92336-4 0  8119
2 20625 070.9988 092.8451 0014535 199.0449 243.9084 14.14538534256080
Epoch (UTC): 18 September 2014 19:06:20
Eccentricity: 0.0014535
inclination: 70.9988°
perigee height: 833 km
apogee height: 854 km
right ascension of ascending node: 92.8451°
argument of perigee: 199.0449°
revolutions per day: 14.14538534
mean anomaly at epoch: 243.9084°
orbit number at epoch: 25608

The dashed part of the orbit path shows where the satellite is in the earth's shadow,  

DLR